{"data":{"norad_id":27607,"epoch":"2026-05-25T03:51:04.061088Z","epoch_age_seconds":64558,"freshness":"FRESH","line1":"1 27607U 02058C   26145.16046367  .00000764  00000+0  10770-3 0  9992","line2":"2 27607  64.5514 200.2269 0075587 266.6862  92.5595 14.82990548261046","mean_motion":14.82990548,"eccentricity":0.0075587,"inclination_deg":64.5514,"raan_deg":200.2269,"arg_perigee_deg":266.6862,"mean_anomaly_deg":92.5595,"bstar":0.0001077,"rev_number":26104,"period_min":97.101090896501,"perigee_km":567.00423026796,"apogee_km":672.79635926788,"semimajor_km":6998.0372947679,"source":"CELESTRAK","updated_at":"2026-05-25T13:38:25.045010Z"}}